Location: Boston
(42.3580°N, 71.0600°W)
Time: 16:52:10
(UTC-05:00)

Tiangong 2 - Pass Details

Date: 11 October 2017
Orbit: 386 x 390 km, 42.8° (Epoch: 15 December)

Event Time Altitude Azimuth Distance (km) Brightness Sun altitude
Exits shadow 04:37:20 21° 109° (ESE) 936 3.5 -25.6°
Drops below altitude 10° 04:38:52 10° 90° (E) 1,448 4.9 -25.4°
Sets 04:41:01 0° 80° (E) 2,283 6.4 -25.0°
